UAE766 OMDB-EPWA

Flight info

Callsign UAE766
Flight time 7h 15m
Altitude 31000
Route ANVIX L223 TARDI N629 BOTAM Y855 LAKLU Q204 NALKI G652 TOKRA DCT ALROK DCT BOSOB DCT ITRUX Y511 PMA Z712 WEJ L677 CVO L617 NOZ L551 ANTAR DCT RIGRO DCT ATFIR N133 USALI DCT LOMOS DCT NEKUL DCT BUXLE DCT MEGIK DCT KEKED DCT ORTEB DCT KONZI DCT LOGDA
Aircraft B77W/H-SDE1E2E3FGHIJ2J3J4J5M1RWXY/LB1D1

Departure

Time 2026-04-21 13:42
Airport Dubai International Airport (OMDB)

Arrival

Time 2026-04-21 20:57
Airport Warsaw Chopin Airport (EPWA)
Time Latitude Longitude Altitude Speed Heading
2026-04-21 13:05 25.24480 55.37146 45 ft 0 kts 213°
2026-04-21 13:30 25.24490 55.37153 45 ft 2 kts 210°
2026-04-21 13:30 25.24503 55.37162 45 ft 2 kts 209°
2026-04-21 13:30 25.24516 55.37170 45 ft 2 kts 210°
2026-04-21 13:31 25.24529 55.37178 45 ft 2 kts 210°
2026-04-21 13:31 25.24542 55.37187 45 ft 2 kts 210°
2026-04-21 13:31 25.24556 55.37195 45 ft 2 kts 199°
2026-04-21 13:31 25.24570 55.37197 45 ft 2 kts 175°
2026-04-21 13:32 25.24585 55.37194 45 ft 2 kts 155°
2026-04-21 13:32 25.24597 55.37185 45 ft 2 kts 136°
2026-04-21 13:32 25.24606 55.37173 45 ft 2 kts 119°
2026-04-21 13:32 25.24614 55.37158 45 ft 2 kts 119°
2026-04-21 13:33 25.24616 55.37153 45 ft 0 kts 120°
2026-04-21 13:35 25.24616 55.37154 45 ft 0 kts 116°
2026-04-21 13:35 25.24616 55.37162 45 ft 1 kts 78°
2026-04-21 13:35 25.24625 55.37207 45 ft 9 kts 83°
2026-04-21 13:36 25.24606 55.37299 45 ft 15 kts 117°
2026-04-21 13:36 25.24542 55.37418 45 ft 19 kts 124°
2026-04-21 13:36 25.24462 55.37546 45 ft 20 kts 123°
2026-04-21 13:36 25.24383 55.37686 45 ft 22 kts 120°
2026-04-21 13:37 25.24303 55.37839 45 ft 23 kts 120°
2026-04-21 13:37 25.24217 55.37999 45 ft 25 kts 121°
2026-04-21 13:37 25.24122 55.38168 45 ft 26 kts 121°
2026-04-21 13:37 25.24024 55.38346 45 ft 27 kts 121°
2026-04-21 13:38 25.23922 55.38530 45 ft 28 kts 121°
2026-04-21 13:38 25.23814 55.38723 45 ft 29 kts 121°
2026-04-21 13:38 25.23717 55.38895 46 ft 18 kts 122°
2026-04-21 13:38 25.23657 55.39001 46 ft 17 kts 121°
2026-04-21 13:39 25.23593 55.39120 46 ft 18 kts 120°
2026-04-21 13:39 25.23523 55.39250 46 ft 20 kts 121°
2026-04-21 13:39 25.23455 55.39370 46 ft 11 kts 121°
2026-04-21 13:39 25.23418 55.39443 46 ft 10 kts 108°
2026-04-21 13:40 25.23431 55.39511 46 ft 9 kts 40°
2026-04-21 13:40 25.23484 55.39550 46 ft 9 kts 29°
2026-04-21 13:40 25.23543 55.39550 46 ft 9 kts 324°
2026-04-21 13:40 25.23572 55.39514 46 ft 0 kts 302°
2026-04-21 13:41 25.23634 55.39406 46 ft 47 kts 301°
2026-04-21 13:41 25.23932 55.38871 46 ft 114 kts 301°
2026-04-21 13:41 25.24452 55.37933 46 ft 173 kts 302°
2026-04-21 13:41 25.25174 55.36637 232 ft 210 kts 303°
2026-04-21 13:42 25.25944 55.35231 921 ft 220 kts 302°
2026-04-21 13:42 25.26746 55.33803 1774 ft 224 kts 304°
2026-04-21 13:42 25.27633 55.32397 2171 ft 226 kts 307°
2026-04-21 13:42 25.28514 55.30989 2770 ft 216 kts 298°
2026-04-21 13:43 25.28936 55.29465 3332 ft 207 kts 276°
2026-04-21 13:43 25.28810 55.27814 3376 ft 227 kts 252°
2026-04-21 13:43 25.28171 55.26158 3527 ft 240 kts 246°
2026-04-21 13:43 25.27446 55.24484 3838 ft 246 kts 246°
2026-04-21 13:44 25.26715 55.22780 4269 ft 247 kts 246°
2026-04-21 13:44 25.25985 55.21064 4726 ft 247 kts 246°
2026-04-21 13:44 25.25252 55.19346 5178 ft 247 kts 244°
2026-04-21 13:44 25.24198 55.17849 5579 ft 250 kts 219°
2026-04-21 13:45 25.22672 55.16974 6014 ft 253 kts 196°
2026-04-21 13:45 25.20864 55.16804 6267 ft 263 kts 178°
2026-04-21 13:45 25.19081 55.17303 6601 ft 269 kts 151°
2026-04-21 13:45 25.17636 55.18616 6820 ft 279 kts 126°
2026-04-21 13:46 25.16662 55.20565 6912 ft 295 kts 115°
2026-04-21 13:46 25.15797 55.22599 7318 ft 296 kts 116°
2026-04-21 13:46 25.14869 55.24632 7787 ft 297 kts 117°
2026-04-21 13:46 25.13914 55.26649 8182 ft 300 kts 118°
2026-04-21 13:47 25.12939 55.28684 8600 ft 301 kts 118°
2026-04-21 13:47 25.11947 55.30746 9005 ft 302 kts 118°
2026-04-21 13:47 25.10969 55.32778 9410 ft 305 kts 119°
2026-04-21 13:47 25.10015 55.34878 9838 ft 306 kts 115°
2026-04-21 13:48 25.09153 55.37031 10235 ft 309 kts 115°
2026-04-21 13:48 25.08284 55.39193 10661 ft 311 kts 115°
2026-04-21 13:48 25.07390 55.41385 11120 ft 312 kts 115°
2026-04-21 13:48 25.06516 55.43581 11386 ft 322 kts 114°
2026-04-21 13:49 25.05617 55.45943 11431 ft 340 kts 114°
2026-04-21 13:49 25.04682 55.48392 11456 ft 358 kts 114°
2026-04-21 13:49 25.03680 55.50999 11513 ft 376 kts 114°
2026-04-21 13:49 25.02649 55.53674 11624 ft 391 kts 114°
2026-04-21 13:50 25.01423 55.56432 11755 ft 404 kts 121°
2026-04-21 13:50 24.99992 55.59106 12209 ft 408 kts 122°
2026-04-21 13:50 24.98547 55.61779 12809 ft 409 kts 122°
2026-04-21 13:50 24.97080 55.64491 13383 ft 412 kts 122°
2026-04-21 13:51 24.95613 55.67202 13868 ft 417 kts 122°
2026-04-21 13:51 24.94085 55.69963 14331 ft 422 kts 126°
2026-04-21 13:51 24.92372 55.72610 14887 ft 426 kts 128°
2026-04-21 13:51 24.90631 55.75234 15457 ft 430 kts 128°
2026-04-21 13:52 24.88855 55.77906 16000 ft 435 kts 128°
2026-04-21 13:52 24.87069 55.80595 16517 ft 440 kts 128°
2026-04-21 13:52 24.85241 55.83347 17063 ft 444 kts 128°
2026-04-21 13:52 24.83421 55.86081 17561 ft 449 kts 128°
2026-04-21 13:53 24.81543 55.88855 18127 ft 452 kts 128°
2026-04-21 13:53 24.79661 55.91629 18711 ft 455 kts 128°
2026-04-21 13:53 24.77646 55.94307 19232 ft 456 kts 136°
2026-04-21 13:53 24.75378 55.96718 19694 ft 459 kts 139°
2026-04-21 13:54 24.72999 55.99160 19995 ft 467 kts 139°
2026-04-21 13:54 24.70639 56.01580 20629 ft 466 kts 139°
2026-04-21 13:54 24.68280 56.04002 21305 ft 465 kts 140°
2026-04-21 13:54 24.65895 56.06453 21820 ft 468 kts 140°
2026-04-21 13:55 24.63525 56.08889 22199 ft 474 kts 140°
2026-04-21 13:55 24.61090 56.11391 22639 ft 477 kts 140°
2026-04-21 13:55 24.58686 56.13861 23123 ft 480 kts 140°
2026-04-21 13:55 24.56345 56.16466 23657 ft 482 kts 134°
2026-04-21 13:56 24.54138 56.19252 24154 ft 485 kts 133°
2026-04-21 13:56 24.51936 56.22062 24566 ft 488 kts 133°
2026-04-21 13:56 24.49694 56.24924 24992 ft 491 kts 133°
2026-04-21 13:56 24.47476 56.27751 25454 ft 492 kts 133°
2026-04-21 13:57 24.45246 56.30591 25938 ft 494 kts 133°
2026-04-21 13:57 24.42999 56.33450 26348 ft 496 kts 133°
2026-04-21 13:57 24.40739 56.36323 26716 ft 499 kts 133°
2026-04-21 13:57 24.38464 56.39213 27112 ft 502 kts 133°
2026-04-21 13:58 24.36167 56.42129 27498 ft 505 kts 133°
2026-04-21 13:58 24.33884 56.45025 27894 ft 507 kts 133°
2026-04-21 13:58 24.31567 56.47963 28344 ft 508 kts 133°
2026-04-21 13:58 24.29272 56.50875 28711 ft 511 kts 131°
2026-04-21 13:59 24.27119 56.53976 29085 ft 514 kts 127°
2026-04-21 13:59 24.25048 56.57162 29611 ft 513 kts 127°
2026-04-21 13:59 24.22981 56.60336 30181 ft 511 kts 127°
2026-04-21 13:59 24.20915 56.63493 30597 ft 512 kts 127°
2026-04-21 14:00 24.18813 56.66689 30792 ft 517 kts 127°
2026-04-21 14:00 24.16709 56.69877 30793 ft 524 kts 127°
2026-04-21 14:00 24.12382 56.76409 30784 ft 528 kts 127°
2026-04-21 14:01 24.07997 56.82755 30782 ft 526 kts 134°
2026-04-21 14:01 24.02411 56.87866 30784 ft 520 kts 150°
2026-04-21 14:02 23.95803 56.90966 30799 ft 514 kts 166°
2026-04-21 14:03 23.85390 56.93870 30831 ft 515 kts 168°
2026-04-21 14:03 23.78416 56.95766 30850 ft 516 kts 168°
2026-04-21 14:04 23.71455 56.97644 30875 ft 516 kts 168°
2026-04-21 14:04 23.64436 56.99530 30891 ft 517 kts 168°
2026-04-21 14:05 23.57478 57.01394 30925 ft 518 kts 168°
2026-04-21 14:05 23.50442 57.03277 30960 ft 517 kts 168°
2026-04-21 14:06 23.43459 57.05141 30995 ft 518 kts 168°
2026-04-21 14:06 23.36319 57.05939 31034 ft 514 kts 185°
2026-04-21 14:07 23.29308 57.04724 31074 ft 510 kts 194°
2026-04-21 14:07 23.22347 57.03089 31074 ft 509 kts 194°
2026-04-21 14:08 23.15408 57.01456 31035 ft 510 kts 194°
2026-04-21 14:08 23.08472 56.99825 30999 ft 510 kts 194°
2026-04-21 14:09 23.01492 56.98185 30956 ft 511 kts 194°
2026-04-21 14:09 22.94530 56.96552 30939 ft 513 kts 194°
2026-04-21 14:10 22.87844 56.94070 30941 ft 505 kts 210°
2026-04-21 14:10 22.82152 56.89693 30946 ft 503 kts 226°
2026-04-21 14:11 22.77869 56.83807 30926 ft 495 kts 242°
2026-04-21 14:11 22.74605 56.77245 30891 ft 493 kts 244°
2026-04-21 14:12 22.71426 56.70708 30858 ft 493 kts 244°
2026-04-21 14:12 22.68242 56.64139 30849 ft 494 kts 244°
2026-04-21 14:13 22.65061 56.57567 30838 ft 494 kts 244°
2026-04-21 14:13 22.61891 56.51015 30815 ft 493 kts 244°
2026-04-21 14:14 22.58708 56.44440 30808 ft 493 kts 244°
2026-04-21 14:14 22.55534 56.37892 30794 ft 492 kts 245°
2026-04-21 14:15 22.52360 56.31340 30791 ft 492 kts 244°
2026-04-21 14:15 22.49177 56.24774 30782 ft 493 kts 244°
2026-04-21 14:16 22.45997 56.18224 30773 ft 492 kts 244°
2026-04-21 14:16 22.42826 56.11701 30761 ft 492 kts 244°
2026-04-21 14:17 22.39664 56.05204 30760 ft 491 kts 244°
2026-04-21 14:17 22.36479 55.98678 30761 ft 491 kts 244°
2026-04-21 14:18 22.33295 55.92193 30759 ft 490 kts 244°
2026-04-21 14:18 22.30093 55.85681 30766 ft 490 kts 244°
2026-04-21 14:19 22.26927 55.79248 30763 ft 488 kts 244°
2026-04-21 14:19 22.23736 55.72757 30767 ft 491 kts 244°
2026-04-21 14:20 22.20559 55.66285 30767 ft 491 kts 244°
2026-04-21 14:20 22.17402 55.59761 30753 ft 488 kts 248°
2026-04-21 14:21 22.15473 55.52810 30745 ft 485 kts 263°
2026-04-21 14:21 22.14808 55.45594 30743 ft 482 kts 266°
2026-04-21 14:22 22.14221 55.38385 30738 ft 484 kts 266°
2026-04-21 14:22 22.13631 55.31208 30745 ft 484 kts 266°
2026-04-21 14:23 22.13036 55.24010 30739 ft 482 kts 266°
2026-04-21 14:23 22.12437 55.16810 30748 ft 484 kts 266°
2026-04-21 14:24 22.11836 55.09618 30748 ft 483 kts 266°
2026-04-21 14:24 22.11231 55.02426 30760 ft 483 kts 266°
2026-04-21 14:25 22.10623 54.95238 30762 ft 483 kts 266°
2026-04-21 14:25 22.10012 54.88056 30758 ft 483 kts 266°
2026-04-21 14:26 22.09396 54.80848 30751 ft 482 kts 266°
2026-04-21 14:26 22.08779 54.73669 30746 ft 482 kts 266°
2026-04-21 14:27 22.08161 54.66518 30755 ft 482 kts 266°
2026-04-21 14:27 22.07541 54.59365 30763 ft 481 kts 266°
2026-04-21 14:28 22.06913 54.52174 30763 ft 481 kts 266°
2026-04-21 14:28 22.06288 54.45045 30763 ft 479 kts 266°
2026-04-21 14:29 22.05655 54.37865 30767 ft 481 kts 266°
2026-04-21 14:29 22.05026 54.30760 30773 ft 480 kts 266°
2026-04-21 14:30 22.04387 54.23582 30775 ft 479 kts 266°
2026-04-21 14:30 22.03747 54.16430 30769 ft 481 kts 266°
2026-04-21 14:31 22.03105 54.09292 30757 ft 480 kts 266°
2026-04-21 14:31 22.02459 54.02140 30750 ft 481 kts 266°
2026-04-21 14:32 22.01811 53.95002 30747 ft 478 kts 266°
2026-04-21 14:32 22.01163 53.87894 30747 ft 479 kts 266°
2026-04-21 14:33 22.00510 53.80777 30745 ft 478 kts 266°
2026-04-21 14:33 21.99857 53.73688 30744 ft 477 kts 266°
2026-04-21 14:34 21.99204 53.66623 30735 ft 477 kts 266°
2026-04-21 14:34 21.98541 53.59492 30741 ft 477 kts 266°
2026-04-21 14:35 21.97882 53.52447 30735 ft 476 kts 267°
2026-04-21 14:35 21.97214 53.45323 30733 ft 476 kts 266°
2026-04-21 14:36 21.96549 53.38269 30725 ft 476 kts 267°
2026-04-21 14:36 21.95879 53.31205 30745 ft 474 kts 266°
2026-04-21 14:37 21.95206 53.24133 30743 ft 474 kts 266°
2026-04-21 14:37 21.94533 53.17094 30743 ft 474 kts 266°
2026-04-21 14:38 21.93857 53.10049 30751 ft 473 kts 266°
2026-04-21 14:38 21.93180 53.03032 30755 ft 474 kts 266°
2026-04-21 14:39 21.92498 52.96000 30750 ft 470 kts 267°
2026-04-21 14:39 21.91820 52.89028 30751 ft 473 kts 267°
2026-04-21 14:40 21.91134 52.82016 30755 ft 470 kts 267°
2026-04-21 14:40 21.90446 52.75010 30748 ft 470 kts 267°
2026-04-21 14:41 21.90439 52.68061 30745 ft 465 kts 279°
2026-04-21 14:41 21.91648 52.61243 30755 ft 464 kts 283°
2026-04-21 14:42 21.92913 52.54509 30739 ft 463 kts 283°
2026-04-21 14:42 21.94175 52.47717 30743 ft 464 kts 282°
2026-04-21 14:43 21.95427 52.40920 30742 ft 462 kts 283°
2026-04-21 14:43 21.96670 52.34139 30745 ft 461 kts 282°
2026-04-21 14:44 21.97905 52.27377 30748 ft 462 kts 282°
2026-04-21 14:44 21.99136 52.20613 30742 ft 460 kts 282°
2026-04-21 14:45 22.00360 52.13870 30741 ft 459 kts 282°
2026-04-21 14:45 22.01584 52.07109 30739 ft 460 kts 282°
2026-04-21 14:46 22.02804 52.00352 30733 ft 459 kts 282°
2026-04-21 14:46 22.04014 51.93630 30730 ft 459 kts 282°
2026-04-21 14:47 22.05218 51.86930 30742 ft 458 kts 282°
2026-04-21 14:47 22.06426 51.80188 30854 ft 455 kts 282°
2026-04-21 14:47 22.07021 51.76864 30982 ft 456 kts 282°
2026-04-21 14:48 22.07618 51.73527 31095 ft 455 kts 282°
2026-04-21 14:48 22.08217 51.70168 31215 ft 454 kts 282°
2026-04-21 14:48 22.08810 51.66839 31334 ft 454 kts 282°
2026-04-21 14:48 22.09399 51.63533 31446 ft 452 kts 282°
2026-04-21 14:49 22.09995 51.60182 31564 ft 451 kts 282°
2026-04-21 14:49 22.10577 51.56900 31682 ft 449 kts 283°
2026-04-21 14:49 22.11162 51.53605 31797 ft 448 kts 283°
2026-04-21 14:50 22.12141 51.48078 31841 ft 449 kts 283°
2026-04-21 14:50 22.13495 51.40411 31764 ft 447 kts 283°
2026-04-21 14:51 22.14655 51.33830 31742 ft 447 kts 282°
2026-04-21 14:51 22.15809 51.27262 31746 ft 446 kts 282°
2026-04-21 14:52 22.16960 51.20700 31741 ft 447 kts 282°
2026-04-21 14:52 22.18111 51.14116 31737 ft 445 kts 282°
2026-04-21 14:53 22.19258 51.07545 31738 ft 447 kts 282°
2026-04-21 14:53 22.20399 51.00991 31733 ft 446 kts 282°
2026-04-21 14:54 22.21540 50.94422 31733 ft 446 kts 282°
2026-04-21 14:54 22.22671 50.87886 31735 ft 444 kts 282°
2026-04-21 14:55 22.23810 50.81298 31736 ft 446 kts 282°
2026-04-21 14:55 22.24935 50.74765 31733 ft 446 kts 282°
2026-04-21 14:56 22.26064 50.68201 31730 ft 445 kts 282°
2026-04-21 14:56 22.27188 50.61646 31725 ft 446 kts 282°
2026-04-21 14:57 22.28309 50.55092 31737 ft 443 kts 282°
2026-04-21 14:57 22.29428 50.48534 31744 ft 444 kts 282°
2026-04-21 14:58 22.30537 50.42015 31743 ft 443 kts 282°
2026-04-21 14:58 22.31642 50.35511 31741 ft 443 kts 282°
2026-04-21 14:59 22.32752 50.28954 31761 ft 443 kts 282°
2026-04-21 14:59 22.33853 50.22436 31762 ft 443 kts 282°
2026-04-21 15:00 22.34953 50.15906 31758 ft 443 kts 282°
2026-04-21 15:00 22.36049 50.09387 31761 ft 441 kts 282°
2026-04-21 15:01 22.37140 50.02877 31757 ft 443 kts 282°
2026-04-21 15:01 22.38230 49.96357 31764 ft 442 kts 281°
2026-04-21 15:02 22.39318 49.89834 31755 ft 444 kts 282°
2026-04-21 15:02 22.40407 49.83284 31751 ft 440 kts 281°
2026-04-21 15:03 22.41487 49.76777 31747 ft 441 kts 281°
2026-04-21 15:03 22.42560 49.70295 31746 ft 440 kts 282°
2026-04-21 15:04 22.43628 49.63827 31747 ft 438 kts 281°
2026-04-21 15:04 22.44696 49.57340 31746 ft 439 kts 281°
2026-04-21 15:05 22.45761 49.50854 31746 ft 438 kts 281°
2026-04-21 15:05 22.47354 49.41124 31746 ft 438 kts 281°
2026-04-21 15:06 22.48408 49.34665 31747 ft 437 kts 281°
2026-04-21 15:06 22.49462 49.28182 31760 ft 440 kts 281°
2026-04-21 15:07 22.50514 49.21702 31749 ft 439 kts 281°
2026-04-21 15:07 22.51559 49.15247 31747 ft 439 kts 281°
2026-04-21 15:08 22.52605 49.08733 31742 ft 437 kts 281°
2026-04-21 15:08 22.53650 49.02259 31744 ft 439 kts 281°
2026-04-21 15:09 22.54689 48.95802 31739 ft 439 kts 281°
2026-04-21 15:09 22.55723 48.89351 31739 ft 438 kts 281°
2026-04-21 15:10 22.56757 48.82881 31742 ft 436 kts 281°
2026-04-21 15:10 22.57792 48.76391 31746 ft 439 kts 281°
2026-04-21 15:11 22.58823 48.69902 31753 ft 437 kts 281°
2026-04-21 15:11 22.59848 48.63434 31757 ft 437 kts 281°
2026-04-21 15:12 22.60872 48.56957 31759 ft 437 kts 280°
2026-04-21 15:12 22.61891 48.50493 31761 ft 437 kts 281°
2026-04-21 15:13 22.62904 48.44054 31762 ft 435 kts 281°
2026-04-21 15:13 22.63917 48.37591 31763 ft 436 kts 280°
2026-04-21 15:14 22.64927 48.31130 31783 ft 436 kts 281°
2026-04-21 15:14 22.65933 48.24681 31783 ft 436 kts 280°
2026-04-21 15:15 22.66936 48.18232 31782 ft 437 kts 280°
2026-04-21 15:15 22.67943 48.11739 31780 ft 437 kts 280°
2026-04-21 15:16 22.68940 48.05292 31778 ft 436 kts 279°
2026-04-21 15:16 22.69581 47.98793 31776 ft 436 kts 277°
2026-04-21 15:17 22.70138 47.92230 31779 ft 441 kts 276°
2026-04-21 15:17 22.70415 47.88946 32061 ft 441 kts 276°
2026-04-21 15:17 22.70690 47.85656 32647 ft 434 kts 277°
2026-04-21 15:18 22.70957 47.82460 33342 ft 426 kts 276°
2026-04-21 15:18 22.71223 47.79261 33762 ft 425 kts 277°
2026-04-21 15:18 22.71750 47.72922 33793 ft 422 kts 277°
2026-04-21 15:19 22.72270 47.66620 33796 ft 421 kts 277°
2026-04-21 15:19 22.72790 47.60286 33804 ft 422 kts 276°
2026-04-21 15:20 22.73306 47.53973 33799 ft 422 kts 276°
2026-04-21 15:20 22.73821 47.47637 33804 ft 423 kts 277°
2026-04-21 15:21 22.74332 47.41317 33812 ft 422 kts 276°
2026-04-21 15:21 22.74837 47.35032 33815 ft 421 kts 276°
2026-04-21 15:22 22.75343 47.28711 33844 ft 422 kts 276°
2026-04-21 15:22 22.75844 47.22425 33843 ft 421 kts 276°
2026-04-21 15:23 22.76346 47.16099 33850 ft 420 kts 276°
2026-04-21 15:23 22.76847 47.09806 33853 ft 421 kts 276°
2026-04-21 15:24 22.77346 47.03517 33856 ft 420 kts 276°
2026-04-21 15:24 22.77842 46.97227 33863 ft 421 kts 276°
2026-04-21 15:25 22.78337 46.90913 33875 ft 418 kts 276°
2026-04-21 15:25 22.78827 46.84645 33873 ft 421 kts 276°
2026-04-21 15:26 22.79314 46.78368 33863 ft 420 kts 276°
2026-04-21 15:26 22.79801 46.72069 33870 ft 420 kts 276°
2026-04-21 15:27 22.80284 46.65788 33882 ft 420 kts 276°
2026-04-21 15:27 22.80766 46.59475 33895 ft 421 kts 276°
2026-04-21 15:28 22.81247 46.53153 33904 ft 421 kts 276°
2026-04-21 15:28 22.81722 46.46877 33912 ft 420 kts 276°
2026-04-21 15:29 22.82200 46.40526 33910 ft 421 kts 276°
2026-04-21 15:29 22.82670 46.34228 33924 ft 421 kts 275°
2026-04-21 15:30 22.83139 46.27891 33944 ft 422 kts 275°
2026-04-21 15:30 22.83604 46.21577 33941 ft 421 kts 275°
2026-04-21 15:31 22.84067 46.15254 33906 ft 422 kts 276°
2026-04-21 15:31 22.84526 46.08946 33890 ft 421 kts 275°
2026-04-21 15:32 22.84984 46.02629 33864 ft 420 kts 275°
2026-04-21 15:32 22.85440 45.96308 33851 ft 420 kts 275°
2026-04-21 15:33 22.85890 45.90026 33847 ft 419 kts 275°
2026-04-21 15:33 22.86338 45.83734 33851 ft 421 kts 275°
2026-04-21 15:34 22.86785 45.77430 33849 ft 422 kts 275°
2026-04-21 15:34 22.87231 45.71091 33858 ft 422 kts 275°
2026-04-21 15:35 22.87675 45.64756 33859 ft 423 kts 275°
2026-04-21 15:35 22.88116 45.58426 33869 ft 422 kts 275°
2026-04-21 15:36 22.88555 45.52094 33882 ft 422 kts 275°
2026-04-21 15:36 22.88993 45.45722 33885 ft 425 kts 276°
2026-04-21 15:37 22.89429 45.39354 33885 ft 424 kts 276°
2026-04-21 15:37 22.89861 45.33009 33908 ft 425 kts 275°
2026-04-21 15:38 22.90292 45.26635 33910 ft 426 kts 275°
2026-04-21 15:38 22.90724 45.20216 33904 ft 424 kts 275°
2026-04-21 15:39 22.91148 45.13862 33908 ft 426 kts 276°
2026-04-21 15:39 22.91573 45.07470 33908 ft 427 kts 276°
2026-04-21 15:40 22.91994 45.01079 33905 ft 424 kts 275°
2026-04-21 15:40 22.92413 44.94690 33906 ft 425 kts 275°
2026-04-21 15:41 22.92828 44.88308 33908 ft 425 kts 275°
2026-04-21 15:41 22.93241 44.81938 33907 ft 425 kts 275°
2026-04-21 15:42 22.93650 44.75581 33910 ft 425 kts 275°
2026-04-21 15:42 22.94084 44.69167 33913 ft 424 kts 277°
2026-04-21 15:43 22.95422 44.63027 33910 ft 425 kts 287°
2026-04-21 15:43 22.97304 44.56962 33912 ft 423 kts 287°
2026-04-21 15:44 22.99190 44.50869 33911 ft 427 kts 286°
2026-04-21 15:44 23.01061 44.44807 33914 ft 424 kts 286°
2026-04-21 15:45 23.02932 44.38731 33922 ft 426 kts 287°
2026-04-21 15:45 23.04807 44.32632 33953 ft 427 kts 285°
2026-04-21 15:46 23.06666 44.26572 33955 ft 426 kts 286°
2026-04-21 15:46 23.08540 44.20457 33957 ft 425 kts 286°
2026-04-21 15:47 23.10406 44.14356 33953 ft 427 kts 285°
2026-04-21 15:47 23.12266 44.08265 33962 ft 427 kts 286°
2026-04-21 15:48 23.14121 44.02181 33957 ft 426 kts 285°
2026-04-21 15:48 23.15989 43.96044 33957 ft 427 kts 285°
2026-04-21 15:49 23.17839 43.89957 33962 ft 426 kts 286°
2026-04-21 15:49 23.19687 43.83868 33952 ft 426 kts 286°
2026-04-21 15:50 23.21542 43.77747 33950 ft 426 kts 286°
2026-04-21 15:50 23.23383 43.71664 33949 ft 426 kts 286°
2026-04-21 15:51 23.25226 43.65562 33949 ft 426 kts 285°
2026-04-21 15:51 23.27067 43.59460 33948 ft 425 kts 285°
2026-04-21 15:52 23.28910 43.53339 33951 ft 426 kts 285°
2026-04-21 15:52 23.30737 43.47266 33948 ft 426 kts 285°
2026-04-21 15:53 23.32572 43.41155 33953 ft 424 kts 285°
2026-04-21 15:53 23.34405 43.35040 33958 ft 425 kts 285°
2026-04-21 15:54 23.36229 43.28946 33988 ft 423 kts 285°
2026-04-21 15:54 23.38052 43.22845 33994 ft 424 kts 285°
2026-04-21 15:55 23.39869 43.16756 33990 ft 425 kts 285°
2026-04-21 15:55 23.41684 43.10660 33992 ft 423 kts 285°
2026-04-21 15:56 23.43485 43.04589 33998 ft 423 kts 285°
2026-04-21 15:56 23.45280 42.98531 33996 ft 422 kts 285°
2026-04-21 15:57 23.47080 42.92446 33994 ft 422 kts 285°
2026-04-21 15:57 23.48871 42.86382 33994 ft 421 kts 285°
2026-04-21 15:58 23.50663 42.80306 33989 ft 422 kts 285°
2026-04-21 15:58 23.52451 42.74232 33989 ft 422 kts 285°
2026-04-21 15:59 23.54239 42.68162 33984 ft 423 kts 285°
2026-04-21 15:59 23.56034 42.62064 33984 ft 424 kts 285°
2026-04-21 16:00 23.57821 42.55983 33981 ft 423 kts 285°
2026-04-21 16:00 23.59610 42.49880 33978 ft 422 kts 285°
2026-04-21 16:01 23.61390 42.43802 33977 ft 424 kts 285°
2026-04-21 16:01 23.63179 42.37680 33973 ft 424 kts 285°
2026-04-21 16:02 23.64959 42.31583 33992 ft 423 kts 284°
2026-04-21 16:02 23.66741 42.25462 33991 ft 423 kts 285°
2026-04-21 16:03 23.68501 42.19390 33991 ft 422 kts 284°
2026-04-21 16:03 23.70277 42.13255 33991 ft 422 kts 284°
2026-04-21 16:04 23.72045 42.07137 33985 ft 423 kts 284°
2026-04-21 16:04 23.73794 42.01075 33990 ft 423 kts 285°
2026-04-21 16:05 23.75565 41.94941 33981 ft 421 kts 284°
2026-04-21 16:05 23.77318 41.88877 33987 ft 422 kts 284°
2026-04-21 16:06 23.79091 41.82729 33986 ft 423 kts 284°
2026-04-21 16:06 23.80849 41.76627 33977 ft 423 kts 285°
2026-04-21 16:07 23.82605 41.70513 33978 ft 423 kts 284°
2026-04-21 16:07 23.84350 41.64428 33976 ft 421 kts 284°
2026-04-21 16:08 23.86970 41.55268 33972 ft 422 kts 284°
2026-04-21 16:09 23.88706 41.49162 33973 ft 422 kts 284°
2026-04-21 16:09 23.90438 41.43059 33977 ft 421 kts 284°
2026-04-21 16:10 23.92170 41.36942 33976 ft 422 kts 284°
2026-04-21 16:10 23.93905 41.30823 33992 ft 421 kts 284°
2026-04-21 16:11 23.95628 41.24744 33993 ft 421 kts 284°
2026-04-21 16:11 23.97362 41.18618 33989 ft 421 kts 284°
2026-04-21 16:12 23.98799 41.13530 33985 ft 421 kts 284°
2026-04-21 16:12 24.00798 41.06441 33990 ft 420 kts 284°
2026-04-21 16:13 24.02524 41.00311 33985 ft 419 kts 284°
2026-04-21 16:13 24.04226 40.94254 33984 ft 421 kts 284°
2026-04-21 16:14 24.05942 40.88140 33981 ft 421 kts 284°
2026-04-21 16:14 24.07660 40.82008 33976 ft 422 kts 284°
2026-04-21 16:15 24.09384 40.75843 33975 ft 422 kts 284°
2026-04-21 16:15 24.11091 40.69729 33975 ft 421 kts 284°
2026-04-21 16:16 24.12792 40.63627 33972 ft 422 kts 284°
2026-04-21 16:16 24.14503 40.57476 33969 ft 421 kts 284°
2026-04-21 16:17 24.16317 40.51380 33965 ft 425 kts 289°
2026-04-21 16:17 24.18970 40.45612 33964 ft 427 kts 293°
2026-04-21 16:18 24.21744 40.39846 33957 ft 427 kts 293°
2026-04-21 16:18 24.24507 40.34090 33963 ft 429 kts 292°
2026-04-21 16:19 24.27260 40.28344 33978 ft 427 kts 292°
2026-04-21 16:19 24.30007 40.22599 33974 ft 427 kts 292°
2026-04-21 16:20 24.32768 40.16817 33977 ft 425 kts 292°
2026-04-21 16:20 24.35439 40.11217 33982 ft 426 kts 292°
2026-04-21 16:21 24.38185 40.05451 33987 ft 428 kts 292°
2026-04-21 16:21 24.40939 39.99663 33981 ft 427 kts 292°
2026-04-21 16:22 24.43682 39.93889 33978 ft 428 kts 292°
2026-04-21 16:22 24.46416 39.88128 33975 ft 426 kts 293°
2026-04-21 16:23 24.49151 39.82356 33960 ft 427 kts 293°
2026-04-21 16:23 24.51867 39.76620 33954 ft 425 kts 292°
2026-04-21 16:24 24.55109 39.71131 33952 ft 434 kts 303°
2026-04-21 16:24 24.59615 39.66561 33963 ft 449 kts 315°
2026-04-21 16:25 24.64680 39.62551 33974 ft 448 kts 316°
2026-04-21 16:25 24.69746 39.58532 33985 ft 448 kts 316°
2026-04-21 16:26 24.74820 39.54488 33999 ft 448 kts 316°
2026-04-21 16:26 24.79848 39.50471 34008 ft 449 kts 315°
2026-04-21 16:27 24.84898 39.46428 33987 ft 450 kts 316°
2026-04-21 16:27 24.89939 39.42388 33967 ft 449 kts 315°
2026-04-21 16:28 24.94999 39.38326 33955 ft 449 kts 315°
2026-04-21 16:28 25.00042 39.34273 33955 ft 450 kts 315°
2026-04-21 16:29 25.05102 39.30205 33963 ft 448 kts 315°
2026-04-21 16:29 25.10122 39.26160 33967 ft 450 kts 315°
2026-04-21 16:30 25.15179 39.22083 33973 ft 450 kts 315°
2026-04-21 16:30 25.20171 39.17944 33972 ft 445 kts 310°
2026-04-21 16:31 25.24222 39.12924 33976 ft 430 kts 297°
2026-04-21 16:31 25.27494 39.07391 33970 ft 429 kts 296°
2026-04-21 16:32 25.30756 39.01823 33965 ft 431 kts 296°
2026-04-21 16:32 25.33993 38.96289 33952 ft 431 kts 297°
2026-04-21 16:33 25.37242 38.90728 33944 ft 431 kts 296°
2026-04-21 16:33 25.40496 38.85148 33931 ft 433 kts 296°
2026-04-21 16:34 25.43737 38.79587 33922 ft 431 kts 296°
2026-04-21 16:34 25.46993 38.73990 33911 ft 431 kts 296°
2026-04-21 16:35 25.50226 38.68427 33903 ft 433 kts 297°
2026-04-21 16:35 25.53477 38.62826 33901 ft 432 kts 297°
2026-04-21 16:36 25.56716 38.57238 33899 ft 435 kts 297°
2026-04-21 16:36 25.59972 38.51618 33902 ft 433 kts 297°
2026-04-21 16:37 25.63233 38.45979 33908 ft 433 kts 297°
2026-04-21 16:37 25.66462 38.40389 33908 ft 433 kts 297°
2026-04-21 16:38 25.69732 38.34721 33906 ft 434 kts 296°
2026-04-21 16:38 25.72965 38.29113 33920 ft 432 kts 296°
2026-04-21 16:39 25.76208 38.23477 33911 ft 435 kts 296°
2026-04-21 16:39 25.79429 38.17876 33911 ft 432 kts 296°
2026-04-21 16:40 25.82661 38.12246 33907 ft 435 kts 296°
2026-04-21 16:40 25.85912 38.06577 33901 ft 434 kts 296°
2026-04-21 16:41 25.88614 38.01860 33912 ft 437 kts 296°
2026-04-21 16:41 25.92414 37.95219 33929 ft 435 kts 297°
2026-04-21 16:42 25.95637 37.89579 33942 ft 435 kts 296°
2026-04-21 16:42 25.98798 37.83844 33948 ft 431 kts 291°
2026-04-21 16:43 26.00819 37.77690 33965 ft 424 kts 279°
2026-04-21 16:43 26.01788 37.71267 33976 ft 421 kts 277°
2026-04-21 16:44 26.02680 37.64829 33956 ft 422 kts 276°
2026-04-21 16:44 26.03566 37.58345 33943 ft 422 kts 276°
2026-04-21 16:45 26.04441 37.51895 33938 ft 423 kts 276°
2026-04-21 16:45 26.05308 37.45451 33929 ft 423 kts 276°
2026-04-21 16:46 26.06173 37.39003 33919 ft 424 kts 276°
2026-04-21 16:46 26.07037 37.32524 33929 ft 423 kts 276°
2026-04-21 16:47 26.07891 37.26104 33922 ft 424 kts 276°
2026-04-21 16:47 26.08752 37.19603 33911 ft 424 kts 276°
2026-04-21 16:48 26.09603 37.13157 33905 ft 422 kts 276°
2026-04-21 16:48 26.10454 37.06683 33895 ft 425 kts 276°
2026-04-21 16:49 26.11301 37.00223 33880 ft 424 kts 276°
2026-04-21 16:49 26.12146 36.93752 33865 ft 422 kts 276°
2026-04-21 16:50 26.12992 36.87255 33862 ft 424 kts 275°
2026-04-21 16:50 26.13828 36.80805 33863 ft 424 kts 276°
2026-04-21 16:51 26.14665 36.74328 33861 ft 423 kts 276°
2026-04-21 16:51 26.15498 36.67858 33853 ft 424 kts 276°
2026-04-21 16:52 26.16332 36.61354 33847 ft 425 kts 276°
2026-04-21 16:52 26.17252 36.54881 33847 ft 427 kts 281°
2026-04-21 16:53 26.19342 36.48612 33850 ft 436 kts 292°
2026-04-21 16:53 26.22824 36.43062 33848 ft 448 kts 306°
2026-04-21 16:54 26.27178 36.38071 33847 ft 448 kts 307°
2026-04-21 16:54 26.31541 36.33090 33876 ft 449 kts 307°
2026-04-21 16:55 26.35894 36.28093 33873 ft 448 kts 307°
2026-04-21 16:55 26.40228 36.23100 33869 ft 446 kts 307°
2026-04-21 16:56 26.44571 36.18082 33868 ft 448 kts 307°
2026-04-21 16:56 26.48913 36.13058 33868 ft 448 kts 307°
2026-04-21 16:57 26.53252 36.08028 33883 ft 450 kts 307°
2026-04-21 16:57 26.57580 36.03006 33873 ft 448 kts 307°
2026-04-21 16:58 26.61907 35.97979 33875 ft 449 kts 307°
2026-04-21 16:58 26.66226 35.92953 33874 ft 448 kts 307°
2026-04-21 16:59 26.70555 35.87912 33860 ft 448 kts 307°
2026-04-21 16:59 26.74907 35.82836 33856 ft 448 kts 307°
2026-04-21 17:00 26.79220 35.77800 33861 ft 452 kts 307°
2026-04-21 17:00 26.82833 35.73579 33851 ft 449 kts 307°
2026-04-21 17:01 26.87903 35.67648 33857 ft 448 kts 307°
2026-04-21 17:01 26.92217 35.62594 33857 ft 449 kts 307°
2026-04-21 17:02 26.96567 35.57492 33860 ft 449 kts 307°
2026-04-21 17:02 27.00866 35.52446 33862 ft 446 kts 307°
2026-04-21 17:03 27.05178 35.47375 33859 ft 448 kts 307°
2026-04-21 17:03 27.09493 35.42298 33863 ft 447 kts 307°
2026-04-21 17:04 27.13776 35.37249 33861 ft 448 kts 307°
2026-04-21 17:04 27.18078 35.32175 33879 ft 447 kts 307°
2026-04-21 17:05 27.22362 35.27114 33881 ft 447 kts 306°
2026-04-21 17:05 27.26673 35.22015 33881 ft 447 kts 307°
2026-04-21 17:06 27.30953 35.16948 33875 ft 448 kts 306°
2026-04-21 17:06 27.35218 35.11892 33871 ft 447 kts 307°
2026-04-21 17:07 27.38786 35.07657 33870 ft 446 kts 307°
2026-04-21 17:07 27.43790 35.01711 33870 ft 448 kts 306°
2026-04-21 17:08 27.48061 34.96630 33870 ft 447 kts 307°
2026-04-21 17:08 27.52388 34.91512 33866 ft 451 kts 309°
2026-04-21 17:09 27.59270 34.84304 33868 ft 451 kts 310°
2026-04-21 17:09 27.63846 34.79501 33868 ft 451 kts 310°
2026-04-21 17:10 27.68451 34.74646 33876 ft 451 kts 309°
2026-04-21 17:10 27.73030 34.69804 33880 ft 451 kts 309°
2026-04-21 17:11 27.77592 34.64969 33883 ft 450 kts 309°
2026-04-21 17:11 27.82156 34.60124 33886 ft 450 kts 309°
2026-04-21 17:12 27.86724 34.55267 33886 ft 452 kts 309°
2026-04-21 17:12 27.91269 34.50432 33878 ft 449 kts 309°
2026-04-21 17:13 27.95817 34.45584 33884 ft 450 kts 309°
2026-04-21 17:13 28.00284 34.40633 33884 ft 443 kts 303°
2026-04-21 17:14 28.04190 34.35278 33889 ft 443 kts 303°
2026-04-21 17:14 28.08080 34.29894 33930 ft 442 kts 302°
2026-04-21 17:15 28.11982 34.24486 33938 ft 441 kts 302°
2026-04-21 17:15 28.15861 34.19107 33963 ft 442 kts 302°
2026-04-21 17:16 28.19721 34.13749 34004 ft 440 kts 302°
2026-04-21 17:16 28.23609 34.08342 34037 ft 442 kts 302°
2026-04-21 17:17 28.27498 34.02932 34065 ft 434 kts 302°
2026-04-21 17:17 28.31260 33.97691 34092 ft 428 kts 302°
2026-04-21 17:18 28.35042 33.92409 34054 ft 430 kts 302°
2026-04-21 17:18 28.38795 33.87165 34034 ft 430 kts 302°
2026-04-21 17:19 28.42579 33.81871 34016 ft 429 kts 302°
2026-04-21 17:19 28.46352 33.76586 34011 ft 427 kts 302°
2026-04-21 17:20 28.50073 33.71366 34006 ft 428 kts 302°
2026-04-21 17:20 28.53827 33.66094 33999 ft 429 kts 302°
2026-04-21 17:21 28.57563 33.60858 34003 ft 428 kts 302°
2026-04-21 17:21 28.61333 33.55566 34002 ft 429 kts 302°
2026-04-21 17:22 28.65058 33.50328 33998 ft 429 kts 302°
2026-04-21 17:22 28.68799 33.45050 34000 ft 427 kts 302°
2026-04-21 17:23 28.72546 33.39758 33993 ft 429 kts 302°
2026-04-21 17:23 28.76269 33.34494 33989 ft 429 kts 302°
2026-04-21 17:24 28.80011 33.29195 34000 ft 429 kts 302°
2026-04-21 17:24 28.83724 33.23932 33996 ft 427 kts 302°
2026-04-21 17:25 28.87458 33.18631 33991 ft 429 kts 302°
2026-04-21 17:25 28.91186 33.13332 33986 ft 429 kts 302°
2026-04-21 17:26 28.94909 33.08035 33982 ft 429 kts 302°
2026-04-21 17:26 28.98625 33.02741 33975 ft 427 kts 302°
2026-04-21 17:27 29.02309 32.97485 33976 ft 427 kts 302°
2026-04-21 17:27 29.06027 32.92174 33981 ft 427 kts 302°
2026-04-21 17:28 29.09743 32.86859 33982 ft 426 kts 302°
2026-04-21 17:28 29.13425 32.81585 33974 ft 426 kts 302°
2026-04-21 17:29 29.17111 32.76300 33975 ft 425 kts 302°
2026-04-21 17:29 29.20812 32.70986 33976 ft 425 kts 302°
2026-04-21 17:30 29.24475 32.65720 33987 ft 424 kts 302°
2026-04-21 17:30 29.28136 32.60450 33986 ft 423 kts 302°
2026-04-21 17:31 29.31778 32.55162 33989 ft 422 kts 302°
2026-04-21 17:31 29.35397 32.49889 33989 ft 421 kts 302°
2026-04-21 17:32 29.39009 32.44619 34004 ft 423 kts 302°
2026-04-21 17:32 29.42697 32.39228 34010 ft 434 kts 302°
2026-04-21 17:33 29.46409 32.33805 34024 ft 431 kts 302°
2026-04-21 17:33 29.50099 32.28404 34043 ft 432 kts 302°
2026-04-21 17:34 29.53805 32.22969 34049 ft 432 kts 302°
2026-04-21 17:34 29.57522 32.17515 34047 ft 432 kts 302°
2026-04-21 17:35 29.61216 32.12085 34036 ft 433 kts 302°
2026-04-21 17:35 29.64946 32.06596 34042 ft 432 kts 302°
2026-04-21 17:36 29.68646 32.01143 34029 ft 433 kts 302°
2026-04-21 17:36 29.72339 31.95692 34024 ft 433 kts 302°
2026-04-21 17:37 29.76056 31.90200 34020 ft 434 kts 302°
2026-04-21 17:37 29.79726 31.84718 34030 ft 433 kts 301°
2026-04-21 17:38 29.83317 31.79105 34029 ft 433 kts 301°
2026-04-21 17:38 29.86885 31.73527 34030 ft 433 kts 301°
2026-04-21 17:39 29.90448 31.67956 34028 ft 434 kts 301°
2026-04-21 17:39 29.94045 31.62365 34029 ft 435 kts 301°
2026-04-21 17:40 29.97682 31.56745 34036 ft 437 kts 301°
2026-04-21 17:40 30.01299 31.51146 34045 ft 437 kts 301°
2026-04-21 17:41 30.04937 31.45507 34039 ft 436 kts 301°
2026-04-21 17:41 30.08586 31.39881 34029 ft 439 kts 304°
2026-04-21 17:42 30.12922 31.34858 34027 ft 443 kts 310°
2026-04-21 17:42 30.17452 31.30008 34040 ft 443 kts 311°
2026-04-21 17:43 30.21984 31.25145 34042 ft 446 kts 311°
2026-04-21 17:43 30.26557 31.20229 34038 ft 444 kts 311°
2026-04-21 17:44 30.31074 31.15364 34042 ft 447 kts 311°
2026-04-21 17:44 30.35634 31.10446 34047 ft 446 kts 311°
2026-04-21 17:45 30.40161 31.05557 34050 ft 444 kts 311°
2026-04-21 17:45 30.44687 31.00661 34046 ft 445 kts 311°
2026-04-21 17:46 30.49209 30.95763 34048 ft 445 kts 311°
2026-04-21 17:46 30.53770 30.90817 34045 ft 446 kts 311°
2026-04-21 17:47 30.58294 30.85903 34052 ft 446 kts 311°
2026-04-21 17:47 30.62835 30.80965 34056 ft 447 kts 311°
2026-04-21 17:48 30.67384 30.76012 34046 ft 447 kts 311°
2026-04-21 17:48 30.71881 30.71109 34050 ft 446 kts 311°
2026-04-21 17:49 30.76426 30.66146 34046 ft 446 kts 311°
2026-04-21 17:49 30.80950 30.61199 34047 ft 447 kts 311°
2026-04-21 17:50 30.85462 30.56259 34054 ft 448 kts 311°
2026-04-21 17:50 30.90016 30.51267 34044 ft 447 kts 312°
2026-04-21 17:51 30.94527 30.46315 34057 ft 447 kts 312°
2026-04-21 17:51 30.99042 30.41351 34046 ft 448 kts 312°
2026-04-21 17:52 31.03571 30.36366 34046 ft 447 kts 312°
2026-04-21 17:52 31.07750 30.31090 34053 ft 441 kts 301°
2026-04-21 17:53 31.10577 30.24774 34054 ft 436 kts 287°
2026-04-21 17:53 31.12456 30.18103 34058 ft 435 kts 286°
2026-04-21 17:54 31.14307 30.11376 34059 ft 437 kts 286°
2026-04-21 17:54 31.16156 30.04634 34051 ft 436 kts 287°
2026-04-21 17:55 31.18867 29.98315 34052 ft 443 kts 301°
2026-04-21 17:55 31.23034 29.92967 34049 ft 450 kts 316°
2026-04-21 17:56 31.28408 29.88984 34057 ft 460 kts 327°
2026-04-21 17:56 31.34045 29.85490 34056 ft 458 kts 327°
2026-04-21 17:57 31.39691 29.81974 34051 ft 459 kts 327°
2026-04-21 17:57 31.45311 29.78460 34051 ft 459 kts 327°
2026-04-21 17:58 31.50970 29.74912 34044 ft 458 kts 327°
2026-04-21 17:58 31.56602 29.71374 34043 ft 458 kts 327°
2026-04-21 17:59 31.62212 29.67843 34044 ft 458 kts 327°
2026-04-21 17:59 31.67838 29.64296 34047 ft 459 kts 327°
2026-04-21 18:00 31.73443 29.60758 34045 ft 460 kts 327°
2026-04-21 18:00 31.79066 29.57204 34040 ft 459 kts 327°
2026-04-21 18:01 31.84713 29.53628 34043 ft 459 kts 327°
2026-04-21 18:01 31.90332 29.50066 34044 ft 459 kts 328°
2026-04-21 18:02 31.95940 29.46506 34043 ft 458 kts 327°
2026-04-21 18:02 32.01629 29.42888 34146 ft 463 kts 328°
2026-04-21 18:03 32.07237 29.39320 34163 ft 458 kts 327°
2026-04-21 18:03 32.12859 29.35735 34161 ft 458 kts 327°
2026-04-21 18:04 32.18473 29.32150 34169 ft 458 kts 327°
2026-04-21 18:04 32.24094 29.28555 34171 ft 457 kts 327°
2026-04-21 18:05 32.29691 29.24968 34170 ft 456 kts 327°
2026-04-21 18:05 32.35269 29.21387 34168 ft 456 kts 327°
2026-04-21 18:06 32.40848 29.17800 34168 ft 457 kts 327°
2026-04-21 18:06 32.46471 29.14181 34167 ft 455 kts 327°
2026-04-21 18:07 32.52032 29.10596 34167 ft 455 kts 327°
2026-04-21 18:07 32.57573 29.07019 34164 ft 455 kts 327°
2026-04-21 18:08 32.63075 29.03462 34173 ft 454 kts 327°
2026-04-21 18:08 32.68701 28.99820 34173 ft 454 kts 327°
2026-04-21 18:09 32.74227 28.96237 34166 ft 453 kts 327°
2026-04-21 18:09 32.79805 28.92616 34158 ft 453 kts 327°
2026-04-21 18:10 32.85340 28.89017 34158 ft 453 kts 327°
2026-04-21 18:10 32.90856 28.85426 34149 ft 453 kts 327°
2026-04-21 18:11 32.96395 28.81814 34141 ft 452 kts 327°
2026-04-21 18:11 33.01894 28.78223 34136 ft 453 kts 327°
2026-04-21 18:12 33.07412 28.74616 34130 ft 452 kts 327°
2026-04-21 18:12 33.12921 28.71007 34134 ft 453 kts 327°
2026-04-21 18:13 33.18433 28.67393 34125 ft 452 kts 327°
2026-04-21 18:13 33.23930 28.63783 34132 ft 452 kts 327°
2026-04-21 18:14 33.32209 28.58336 34127 ft 452 kts 327°
2026-04-21 18:15 33.37726 28.54700 34124 ft 451 kts 327°
2026-04-21 18:15 33.43252 28.51053 34120 ft 452 kts 327°
2026-04-21 18:16 33.48766 28.47408 34117 ft 452 kts 327°
2026-04-21 18:16 33.54263 28.43770 34118 ft 452 kts 327°
2026-04-21 18:17 33.59774 28.40117 34115 ft 452 kts 327°
2026-04-21 18:17 33.65262 28.36474 34112 ft 451 kts 327°
2026-04-21 18:18 33.70750 28.32826 34122 ft 451 kts 327°
2026-04-21 18:18 33.76236 28.29174 34123 ft 451 kts 327°
2026-04-21 18:19 33.81744 28.25550 34112 ft 451 kts 329°
2026-04-21 18:19 33.87355 28.22209 34118 ft 451 kts 329°
2026-04-21 18:20 33.93022 28.18831 34119 ft 453 kts 329°
2026-04-21 18:20 33.98658 28.15455 34113 ft 452 kts 329°
2026-04-21 18:21 34.04284 28.12073 34116 ft 451 kts 329°
2026-04-21 18:21 34.09913 28.08680 34117 ft 458 kts 329°
2026-04-21 18:22 34.15649 28.05216 34122 ft 465 kts 329°
2026-04-21 18:22 34.21442 28.01714 34133 ft 464 kts 329°
2026-04-21 18:23 34.27209 27.98222 34130 ft 464 kts 329°
2026-04-21 18:23 34.32991 27.94714 34137 ft 464 kts 329°
2026-04-21 18:24 34.38729 27.91227 34130 ft 465 kts 329°
2026-04-21 18:24 34.44521 27.87702 34130 ft 464 kts 329°
2026-04-21 18:25 34.50321 27.84166 34118 ft 463 kts 329°
2026-04-21 18:25 34.56056 27.80665 34119 ft 463 kts 329°
2026-04-21 18:26 34.61818 27.77141 34123 ft 464 kts 329°
2026-04-21 18:26 34.67585 27.73610 34113 ft 464 kts 329°
2026-04-21 18:27 34.73357 27.70069 34119 ft 464 kts 329°
2026-04-21 18:27 34.79104 27.66538 34117 ft 464 kts 329°
2026-04-21 18:28 34.84876 27.62987 34109 ft 463 kts 329°
2026-04-21 18:28 34.90621 27.59446 34105 ft 464 kts 329°
2026-04-21 18:29 34.96357 27.55905 34116 ft 464 kts 329°
2026-04-21 18:29 35.02116 27.52345 34110 ft 464 kts 329°
2026-04-21 18:30 35.07870 27.48782 34105 ft 464 kts 329°
2026-04-21 18:30 35.13625 27.45212 34107 ft 465 kts 329°
2026-04-21 18:31 35.19413 27.41616 34109 ft 465 kts 329°
2026-04-21 18:31 35.25162 27.38039 34101 ft 465 kts 329°
2026-04-21 18:32 35.30925 27.34448 34107 ft 465 kts 329°
2026-04-21 18:32 35.36750 27.30811 34116 ft 465 kts 329°
2026-04-21 18:33 35.42504 27.27214 34112 ft 465 kts 329°
2026-04-21 18:33 35.48264 27.23607 34114 ft 465 kts 329°
2026-04-21 18:34 35.53997 27.20011 34106 ft 466 kts 329°
2026-04-21 18:34 35.59756 27.16392 34110 ft 466 kts 329°
2026-04-21 18:35 35.64561 27.13369 34108 ft 466 kts 329°
2026-04-21 18:35 35.71304 27.09119 34107 ft 466 kts 329°
2026-04-21 18:36 35.77092 27.05465 34095 ft 466 kts 329°
2026-04-21 18:36 35.82858 27.01818 34095 ft 467 kts 329°
2026-04-21 18:37 35.88640 26.98155 34090 ft 468 kts 329°
2026-04-21 18:37 35.94437 26.94477 34099 ft 468 kts 329°
2026-04-21 18:38 36.00197 26.90817 34088 ft 468 kts 329°
2026-04-21 18:38 36.05986 26.87132 34090 ft 468 kts 329°
2026-04-21 18:39 36.11760 26.83450 34091 ft 468 kts 329°
2026-04-21 18:39 36.17544 26.79755 34091 ft 468 kts 329°
2026-04-21 18:40 36.23330 26.76053 34089 ft 468 kts 329°
2026-04-21 18:40 36.28170 26.72952 34083 ft 468 kts 329°
2026-04-21 18:41 36.34907 26.68627 34085 ft 468 kts 329°
2026-04-21 18:41 36.40683 26.64914 34080 ft 468 kts 329°
2026-04-21 18:42 36.46449 26.61200 34076 ft 468 kts 329°
2026-04-21 18:42 36.52203 26.57487 34077 ft 468 kts 329°
2026-04-21 18:43 36.57963 26.53764 34072 ft 468 kts 329°
2026-04-21 18:43 36.63739 26.50025 34065 ft 469 kts 329°
2026-04-21 18:44 36.69526 26.46272 34067 ft 470 kts 329°
2026-04-21 18:44 36.75321 26.42508 34067 ft 469 kts 329°
2026-04-21 18:45 36.81075 26.38763 34057 ft 469 kts 329°
2026-04-21 18:45 36.86869 26.34987 34057 ft 469 kts 329°
2026-04-21 18:46 36.92676 26.31195 34060 ft 469 kts 329°
2026-04-21 18:46 36.98455 26.27415 34061 ft 469 kts 329°
2026-04-21 18:47 37.04217 26.23640 34055 ft 468 kts 329°
2026-04-21 18:47 37.09967 26.19866 34055 ft 467 kts 328°
2026-04-21 18:48 37.15747 26.16065 34055 ft 468 kts 328°
2026-04-21 18:48 37.21487 26.12285 34060 ft 467 kts 328°
2026-04-21 18:49 37.27269 26.08470 34065 ft 467 kts 328°
2026-04-21 18:49 37.32070 26.05297 34066 ft 467 kts 328°
2026-04-21 18:50 37.38818 26.00830 34064 ft 467 kts 328°
2026-04-21 18:50 37.44541 25.97034 34062 ft 466 kts 328°
2026-04-21 18:51 37.50290 25.93215 34057 ft 467 kts 328°
2026-04-21 18:51 37.55859 25.89508 34056 ft 466 kts 328°
2026-04-21 18:52 37.61675 25.85799 34049 ft 468 kts 333°
2026-04-21 18:52 37.67710 25.82746 34048 ft 469 kts 334°
2026-04-21 18:53 37.73784 25.79649 34044 ft 469 kts 334°
2026-04-21 18:53 37.79800 25.76544 34036 ft 467 kts 333°
2026-04-21 18:54 37.85833 25.73407 34030 ft 467 kts 333°
2026-04-21 18:54 37.91774 25.70319 34022 ft 460 kts 333°
2026-04-21 18:55 37.96751 25.67700 34022 ft 468 kts 333°
2026-04-21 18:55 38.03760 25.64011 34019 ft 467 kts 333°
2026-04-21 18:56 38.09747 25.60856 34012 ft 466 kts 333°
2026-04-21 18:56 38.15751 25.57688 34013 ft 466 kts 333°
2026-04-21 18:57 38.21716 25.54535 34014 ft 466 kts 333°
2026-04-21 18:57 38.27706 25.51363 34013 ft 466 kts 333°
2026-04-21 18:58 38.33704 25.48182 34013 ft 467 kts 333°
2026-04-21 18:58 38.39706 25.44993 34006 ft 466 kts 333°
2026-04-21 18:59 38.45686 25.41810 34007 ft 466 kts 333°
2026-04-21 18:59 38.51660 25.38624 34005 ft 466 kts 333°
2026-04-21 19:00 38.57625 25.35437 34004 ft 465 kts 333°
2026-04-21 19:00 38.63569 25.32256 34010 ft 465 kts 332°
2026-04-21 19:01 38.69509 25.29071 34011 ft 465 kts 332°
2026-04-21 19:01 38.75473 25.25868 34012 ft 465 kts 332°
2026-04-21 19:02 38.81437 25.22659 34014 ft 465 kts 332°
2026-04-21 19:02 38.87394 25.19448 34017 ft 464 kts 332°
2026-04-21 19:03 38.93353 25.16229 34015 ft 464 kts 332°
2026-04-21 19:03 38.99303 25.13009 34078 ft 468 kts 332°
2026-04-21 19:03 39.02301 25.11385 34444 ft 467 kts 332°
2026-04-21 19:04 39.05288 25.09767 34936 ft 462 kts 332°
2026-04-21 19:04 39.08236 25.08168 35349 ft 460 kts 332°
2026-04-21 19:04 39.11193 25.06561 35634 ft 460 kts 332°
2026-04-21 19:04 39.14131 25.04963 35856 ft 461 kts 332°
2026-04-21 19:05 39.17074 25.03361 35905 ft 461 kts 332°
2026-04-21 19:05 39.22970 25.00148 35917 ft 460 kts 332°
2026-04-21 19:06 39.28877 24.96922 35916 ft 461 kts 332°
2026-04-21 19:06 39.34775 24.93696 35918 ft 460 kts 332°
2026-04-21 19:07 39.40659 24.90471 35906 ft 460 kts 332°
2026-04-21 19:07 39.46529 24.87248 35916 ft 461 kts 332°
2026-04-21 19:08 39.52426 24.84004 35910 ft 462 kts 332°
2026-04-21 19:08 39.58344 24.80744 35922 ft 461 kts 332°
2026-04-21 19:09 39.64241 24.77488 35912 ft 460 kts 332°
2026-04-21 19:09 39.70115 24.74239 35919 ft 459 kts 332°
2026-04-21 19:10 39.75971 24.70994 35918 ft 459 kts 332°
2026-04-21 19:10 39.81898 24.67703 35921 ft 461 kts 332°
2026-04-21 19:11 39.87767 24.64439 35926 ft 461 kts 332°
2026-04-21 19:11 39.93670 24.61149 35928 ft 460 kts 332°
2026-04-21 19:12 39.98581 24.58408 35921 ft 459 kts 332°
2026-04-21 19:12 40.05439 24.54572 35919 ft 460 kts 332°
2026-04-21 19:13 40.11290 24.51293 35932 ft 461 kts 332°
2026-04-21 19:13 40.17205 24.47973 35937 ft 459 kts 332°
2026-04-21 19:14 40.23057 24.44680 35928 ft 459 kts 332°
2026-04-21 19:14 40.28894 24.41391 35926 ft 460 kts 332°
2026-04-21 19:15 40.34763 24.38077 35934 ft 458 kts 332°
2026-04-21 19:15 40.40595 24.34777 35935 ft 460 kts 331°
2026-04-21 19:16 40.46462 24.31451 35953 ft 459 kts 331°
2026-04-21 19:16 40.52350 24.28107 35946 ft 460 kts 331°
2026-04-21 19:17 40.61169 24.23087 35951 ft 460 kts 331°
2026-04-21 19:17 40.67057 24.19728 35952 ft 459 kts 331°
2026-04-21 19:18 40.72918 24.16376 35955 ft 460 kts 331°
2026-04-21 19:18 40.78790 24.13012 35951 ft 461 kts 331°
2026-04-21 19:19 40.84652 24.09648 35953 ft 460 kts 332°
2026-04-21 19:19 40.90516 24.06276 35945 ft 461 kts 331°
2026-04-21 19:20 40.96370 24.02902 35950 ft 462 kts 331°
2026-04-21 19:20 41.02267 23.99498 35949 ft 460 kts 332°
2026-04-21 19:21 41.08130 23.96107 35962 ft 460 kts 332°
2026-04-21 19:21 41.14008 23.92700 35945 ft 460 kts 331°
2026-04-21 19:22 41.19852 23.89307 35957 ft 460 kts 331°
2026-04-21 19:22 41.25691 23.85910 35955 ft 460 kts 331°
2026-04-21 19:23 41.31545 23.82497 35957 ft 459 kts 331°
2026-04-21 19:23 41.37383 23.79091 35951 ft 460 kts 333°
2026-04-21 19:24 41.43628 23.76844 35951 ft 470 kts 347°
2026-04-21 19:24 41.50158 23.75944 35963 ft 473 kts 348°
2026-04-21 19:25 41.56632 23.75072 35965 ft 471 kts 348°
2026-04-21 19:25 41.63171 23.74166 35958 ft 471 kts 348°
2026-04-21 19:26 41.69711 23.73246 35962 ft 472 kts 348°
2026-04-21 19:26 41.76186 23.72327 35957 ft 472 kts 348°
2026-04-21 19:27 41.82728 23.71394 35959 ft 472 kts 348°
2026-04-21 19:27 41.89202 23.70467 35959 ft 471 kts 348°
2026-04-21 19:28 41.95715 23.69531 35965 ft 470 kts 348°
2026-04-21 19:28 42.02210 23.68596 35967 ft 471 kts 348°
2026-04-21 19:29 42.08704 23.67659 35969 ft 470 kts 348°
2026-04-21 19:29 42.15199 23.66719 35972 ft 471 kts 348°
2026-04-21 19:30 42.21700 23.65776 35973 ft 470 kts 348°
2026-04-21 19:30 42.28192 23.64833 35972 ft 471 kts 348°
2026-04-21 19:31 42.34639 23.63586 35982 ft 467 kts 343°
2026-04-21 19:31 42.41010 23.61904 35981 ft 466 kts 343°
2026-04-21 19:32 42.47375 23.60251 35985 ft 467 kts 343°
2026-04-21 19:32 42.53719 23.58621 35995 ft 465 kts 343°
2026-04-21 19:33 42.60081 23.56992 36002 ft 465 kts 343°
2026-04-21 19:33 42.66432 23.55369 36008 ft 466 kts 343°
2026-04-21 19:34 42.72799 23.53741 36010 ft 466 kts 343°
2026-04-21 19:34 42.79146 23.52117 36011 ft 465 kts 343°
2026-04-21 19:35 42.88709 23.49665 36000 ft 466 kts 343°
2026-04-21 19:36 42.95042 23.48037 35990 ft 465 kts 343°
2026-04-21 19:36 43.01427 23.46392 35971 ft 467 kts 343°
2026-04-21 19:37 43.07772 23.44756 35995 ft 465 kts 343°
2026-04-21 19:37 43.14139 23.43108 35988 ft 466 kts 343°
2026-04-21 19:38 43.20467 23.41469 36001 ft 464 kts 343°
2026-04-21 19:38 43.25766 23.40092 36005 ft 466 kts 343°
2026-04-21 19:39 43.33165 23.38168 35984 ft 464 kts 343°
2026-04-21 19:39 43.39531 23.36507 35997 ft 465 kts 343°
2026-04-21 19:40 43.45880 23.34848 35992 ft 466 kts 342°
2026-04-21 19:40 43.52208 23.33190 36002 ft 465 kts 342°
2026-04-21 19:41 43.58543 23.31528 35989 ft 463 kts 342°
2026-04-21 19:41 43.64885 23.29859 36009 ft 465 kts 342°
2026-04-21 19:42 43.71274 23.28175 36002 ft 465 kts 342°
2026-04-21 19:42 43.77580 23.26509 36007 ft 466 kts 342°
2026-04-21 19:43 43.83982 23.24814 36009 ft 463 kts 341°
2026-04-21 19:43 43.90151 23.22517 36002 ft 461 kts 337°
2026-04-21 19:44 43.96287 23.20095 36004 ft 463 kts 337°
2026-04-21 19:44 44.02484 23.17678 35988 ft 460 kts 337°
2026-04-21 19:45 44.08622 23.15293 36000 ft 462 kts 338°
2026-04-21 19:45 44.11744 23.14083 36146 ft 462 kts 338°
2026-04-21 19:45 44.14813 23.12895 36033 ft 459 kts 338°
2026-04-21 19:46 44.20974 23.10506 36004 ft 460 kts 338°
2026-04-21 19:46 44.27131 23.08115 35999 ft 461 kts 338°
2026-04-21 19:47 44.33267 23.05729 36016 ft 460 kts 338°
2026-04-21 19:47 44.39450 23.03319 36005 ft 464 kts 338°
2026-04-21 19:48 44.45638 23.00904 36000 ft 462 kts 338°
2026-04-21 19:48 44.51866 22.98467 36008 ft 464 kts 338°
2026-04-21 19:49 44.58066 22.96036 36006 ft 463 kts 338°
2026-04-21 19:49 44.64268 22.93599 36011 ft 464 kts 338°
2026-04-21 19:50 44.69429 22.91568 36020 ft 463 kts 338°
2026-04-21 19:50 44.76667 22.88710 36015 ft 463 kts 339°
2026-04-21 19:51 44.82870 22.86256 36006 ft 466 kts 339°
2026-04-21 19:51 44.89106 22.83784 36014 ft 464 kts 339°
2026-04-21 19:52 44.95304 22.81321 36002 ft 466 kts 339°
2026-04-21 19:52 45.01540 22.78837 36013 ft 468 kts 339°
2026-04-21 19:53 45.07795 22.76341 35993 ft 467 kts 339°
2026-04-21 19:53 45.14069 22.73830 35983 ft 467 kts 339°
2026-04-21 19:54 45.20311 22.71327 35968 ft 469 kts 339°
2026-04-21 19:54 45.26585 22.68806 35949 ft 469 kts 339°
2026-04-21 19:55 45.32867 22.66275 35964 ft 469 kts 339°
2026-04-21 19:55 45.39113 22.63753 35975 ft 469 kts 339°
2026-04-21 19:56 45.45419 22.61200 35982 ft 471 kts 339°
2026-04-21 19:56 45.51721 22.58645 35998 ft 471 kts 339°
2026-04-21 19:57 45.57986 22.56098 35989 ft 471 kts 340°
2026-04-21 19:57 45.64292 22.53528 35985 ft 471 kts 340°
2026-04-21 19:58 45.70554 22.50970 35975 ft 472 kts 340°
2026-04-21 19:58 45.76880 22.48380 35969 ft 473 kts 340°
2026-04-21 19:59 45.83167 22.45800 35977 ft 472 kts 340°
2026-04-21 19:59 45.89469 22.43207 35988 ft 474 kts 340°
2026-04-21 20:00 45.95783 22.40604 35996 ft 474 kts 340°
2026-04-21 20:00 46.02140 22.37976 36007 ft 475 kts 340°
2026-04-21 20:01 46.08464 22.35357 36006 ft 474 kts 340°
2026-04-21 20:01 46.14809 22.32722 36020 ft 474 kts 340°
2026-04-21 20:02 46.20092 22.30523 36020 ft 473 kts 340°
2026-04-21 20:02 46.27470 22.27445 36019 ft 474 kts 340°
2026-04-21 20:03 46.33794 22.24799 36014 ft 474 kts 340°
2026-04-21 20:03 46.40148 22.22135 36011 ft 475 kts 340°
2026-04-21 20:04 46.46485 22.19471 36011 ft 475 kts 340°
2026-04-21 20:04 46.52770 22.16707 36007 ft 475 kts 340°
2026-04-21 20:05 46.59105 22.13884 36021 ft 475 kts 340°
2026-04-21 20:05 46.65429 22.11063 36036 ft 475 kts 340°
2026-04-21 20:06 46.71743 22.08243 36044 ft 475 kts 340°
2026-04-21 20:06 46.78058 22.05416 36055 ft 476 kts 340°
2026-04-21 20:07 46.84387 22.02577 36054 ft 476 kts 340°
2026-04-21 20:07 46.89652 22.00210 36062 ft 477 kts 340°
2026-04-21 20:08 46.97022 21.96889 36065 ft 477 kts 340°
2026-04-21 20:08 47.03339 21.94035 36068 ft 477 kts 340°
2026-04-21 20:09 47.09695 21.91157 36069 ft 476 kts 340°
2026-04-21 20:09 47.16069 21.88263 36071 ft 477 kts 340°
2026-04-21 20:10 47.22417 21.85389 36068 ft 477 kts 341°
2026-04-21 20:10 47.28795 21.82700 36069 ft 477 kts 342°
2026-04-21 20:11 47.35170 21.80011 36066 ft 478 kts 341°
2026-04-21 20:11 47.41566 21.77300 36071 ft 477 kts 342°
2026-04-21 20:12 47.47918 21.74597 36072 ft 477 kts 342°
2026-04-21 20:12 47.53226 21.72333 36072 ft 477 kts 342°
2026-04-21 20:13 47.60625 21.69166 36069 ft 477 kts 342°
2026-04-21 20:13 47.66982 21.66437 36071 ft 477 kts 342°
2026-04-21 20:14 47.73375 21.63686 36066 ft 477 kts 342°
2026-04-21 20:14 47.79719 21.60949 36067 ft 478 kts 342°
2026-04-21 20:15 47.86094 21.58191 36074 ft 477 kts 342°
2026-04-21 20:15 47.92438 21.55440 36073 ft 477 kts 342°
2026-04-21 20:16 47.98795 21.52675 36080 ft 478 kts 342°
2026-04-21 20:16 48.05160 21.49900 36080 ft 478 kts 342°
2026-04-21 20:17 48.11560 21.47104 36080 ft 478 kts 342°
2026-04-21 20:17 48.17907 21.44322 36088 ft 478 kts 342°
2026-04-21 20:18 48.23199 21.41998 36087 ft 478 kts 342°
2026-04-21 20:18 48.30667 21.38709 36084 ft 478 kts 342°
2026-04-21 20:19 48.37036 21.35896 36094 ft 478 kts 342°
2026-04-21 20:19 48.43436 21.33062 36097 ft 478 kts 342°
2026-04-21 20:20 48.49809 21.30233 36101 ft 478 kts 342°
2026-04-21 20:20 48.56190 21.27400 36115 ft 479 kts 342°
2026-04-21 20:21 48.62564 21.24576 36116 ft 479 kts 342°
2026-04-21 20:21 48.68932 21.21747 36115 ft 479 kts 342°
2026-04-21 20:22 48.75298 21.18910 36120 ft 480 kts 342°
2026-04-21 20:22 48.84899 21.14618 36109 ft 481 kts 342°
2026-04-21 20:23 48.91279 21.11756 36113 ft 481 kts 342°
2026-04-21 20:23 48.97663 21.08884 36113 ft 481 kts 343°
2026-04-21 20:24 49.04059 21.06000 36109 ft 480 kts 343°
2026-04-21 20:24 49.10451 21.03109 36102 ft 480 kts 343°
2026-04-21 20:25 49.16839 21.00213 36096 ft 480 kts 343°
2026-04-21 20:25 49.23214 20.97314 36079 ft 480 kts 343°
2026-04-21 20:26 49.29630 20.94389 36092 ft 481 kts 343°
2026-04-21 20:26 49.35973 20.91489 36096 ft 480 kts 343°
2026-04-21 20:27 49.42400 20.88544 36107 ft 480 kts 343°
2026-04-21 20:27 49.48779 20.85611 36105 ft 479 kts 343°
2026-04-21 20:28 49.55150 20.82675 36107 ft 479 kts 343°
2026-04-21 20:28 49.61548 20.79718 36108 ft 479 kts 343°
2026-04-21 20:29 49.67916 20.76767 36118 ft 480 kts 343°
2026-04-21 20:29 49.74324 20.73790 36126 ft 480 kts 343°
2026-04-21 20:30 49.80738 20.70801 36120 ft 480 kts 343°
2026-04-21 20:30 49.87095 20.67831 36120 ft 480 kts 344°
2026-04-21 20:31 49.93493 20.64833 36126 ft 480 kts 344°
2026-04-21 20:31 49.99833 20.61854 36131 ft 479 kts 344°
2026-04-21 20:32 50.06234 20.58840 36128 ft 480 kts 345°
2026-04-21 20:32 50.12752 20.57284 36132 ft 478 kts
2026-04-21 20:33 50.19410 20.57843 36146 ft 478 kts
2026-04-21 20:33 50.26028 20.58552 36141 ft 477 kts
2026-04-21 20:34 50.32634 20.59249 36147 ft 477 kts
2026-04-21 20:34 50.39215 20.59939 35794 ft 469 kts
2026-04-21 20:35 50.42460 20.60278 34998 ft 476 kts
2026-04-21 20:35 50.45779 20.60626 34150 ft 481 kts
2026-04-21 20:35 50.49108 20.60974 33318 ft 485 kts
2026-04-21 20:35 50.52461 20.61324 32461 ft 487 kts
2026-04-21 20:36 50.55825 20.61676 31821 ft 478 kts
2026-04-21 20:36 50.59042 20.62011 31242 ft 465 kts
2026-04-21 20:36 50.62220 20.62343 30399 ft 454 kts
2026-04-21 20:36 50.65317 20.62667 29667 ft 441 kts
2026-04-21 20:37 50.68337 20.62984 29173 ft 433 kts
2026-04-21 20:37 50.71345 20.63300 28620 ft 428 kts
2026-04-21 20:37 50.74266 20.63608 28102 ft 427 kts
2026-04-21 20:37 50.77261 20.63924 27580 ft 437 kts
2026-04-21 20:38 50.80302 20.64244 27041 ft 435 kts
2026-04-21 20:38 50.83281 20.64558 26508 ft 429 kts
2026-04-21 20:38 50.86250 20.64871 25978 ft 424 kts
2026-04-21 20:38 50.89162 20.65179 25452 ft 419 kts
2026-04-21 20:39 50.92053 20.65486 24921 ft 415 kts
2026-04-21 20:39 50.94898 20.65787 24395 ft 412 kts
2026-04-21 20:39 50.97737 20.66089 23858 ft 408 kts
2026-04-21 20:39 51.00520 20.66384 23338 ft 403 kts
2026-04-21 20:40 51.03309 20.66681 22825 ft 400 kts
2026-04-21 20:40 51.06081 20.66977 22301 ft 397 kts
2026-04-21 20:40 51.08794 20.67266 21785 ft 395 kts
2026-04-21 20:40 51.11544 20.67560 21273 ft 391 kts
2026-04-21 20:41 51.14208 20.67845 20770 ft 388 kts
2026-04-21 20:41 51.16898 20.68133 20248 ft 385 kts
2026-04-21 20:41 51.19562 20.68418 19737 ft 382 kts
2026-04-21 20:41 51.22187 20.68699 19381 ft 372 kts
2026-04-21 20:42 51.24699 20.68968 19268 ft 354 kts
2026-04-21 20:42 51.27103 20.69228 18910 ft 337 kts
2026-04-21 20:42 51.29353 20.69897 18234 ft 329 kts 18°
2026-04-21 20:42 51.31514 20.70992 17443 ft 326 kts 20°
2026-04-21 20:43 51.33642 20.72138 16649 ft 324 kts 20°
2026-04-21 20:43 51.35751 20.73276 15893 ft 320 kts 19°
2026-04-21 20:43 51.37835 20.74396 15161 ft 317 kts 19°
2026-04-21 20:43 51.39904 20.75506 14420 ft 314 kts 19°
2026-04-21 20:44 51.41960 20.76609 13684 ft 311 kts 19°
2026-04-21 20:44 51.43997 20.77702 12944 ft 308 kts 19°
2026-04-21 20:44 51.45992 20.78774 12370 ft 300 kts 19°
2026-04-21 20:44 51.47916 20.79809 12086 ft 284 kts 19°
2026-04-21 20:45 51.49758 20.80800 11621 ft 276 kts 19°
2026-04-21 20:45 51.51561 20.81772 11042 ft 273 kts 19°
2026-04-21 20:45 51.53347 20.82735 10434 ft 271 kts 19°
2026-04-21 20:45 51.55130 20.83698 9829 ft 270 kts 19°
2026-04-21 20:46 51.56877 20.84641 9226 ft 268 kts 19°
2026-04-21 20:46 51.58638 20.85593 8633 ft 266 kts 19°
2026-04-21 20:46 51.60366 20.86527 8059 ft 264 kts 19°
2026-04-21 20:46 51.62099 20.87465 7453 ft 263 kts 19°
2026-04-21 20:47 51.63831 20.88404 6884 ft 261 kts 19°
2026-04-21 20:47 51.65538 20.89329 6309 ft 259 kts 19°
2026-04-21 20:47 51.67236 20.90250 5780 ft 256 kts 19°
2026-04-21 20:47 51.68888 20.91147 5260 ft 254 kts 19°
2026-04-21 20:48 51.70538 20.92011 5049 ft 244 kts 19°
2026-04-21 20:48 51.72137 20.92842 5008 ft 237 kts 19°
2026-04-21 20:48 51.73701 20.93660 5003 ft 237 kts 19°
2026-04-21 20:48 51.75274 20.94485 5004 ft 236 kts 19°
2026-04-21 20:49 51.76820 20.95296 5001 ft 236 kts 19°
2026-04-21 20:49 51.78274 20.96467 4985 ft 235 kts 34°
2026-04-21 20:49 51.79619 20.98010 4889 ft 235 kts 36°
2026-04-21 20:49 51.80925 20.99556 4792 ft 235 kts 36°
2026-04-21 20:50 51.82236 21.01106 4711 ft 234 kts 36°
2026-04-21 20:50 51.83556 21.02666 4630 ft 234 kts 36°
2026-04-21 20:50 51.84866 21.04215 4544 ft 234 kts 36°
2026-04-21 20:50 51.86185 21.05776 4469 ft 234 kts 36°
2026-04-21 20:51 51.87335 21.07615 4357 ft 234 kts 55°
2026-04-21 20:51 51.88150 21.09872 4294 ft 235 kts 59°
2026-04-21 20:51 51.88924 21.12190 4218 ft 234 kts 59°
2026-04-21 20:51 51.89745 21.14476 4119 ft 233 kts 49°
2026-04-21 20:52 51.90990 21.16087 4045 ft 232 kts 24°
2026-04-21 20:52 51.92570 21.16630 4002 ft 234 kts 359°
2026-04-21 20:52 51.94141 21.16011 4005 ft 238 kts 340°
2026-04-21 20:52 51.95668 21.14863 3998 ft 239 kts 337°
2026-04-21 20:53 51.97139 21.13629 3999 ft 240 kts 335°
2026-04-21 20:53 51.98578 21.12373 3976 ft 232 kts 335°
2026-04-21 20:53 52.00002 21.11122 3654 ft 232 kts 335°
2026-04-21 20:53 52.01387 21.09913 3295 ft 221 kts 335°
2026-04-21 20:54 52.02769 21.08712 2941 ft 223 kts 335°
2026-04-21 20:54 52.04102 21.07555 2786 ft 213 kts 335°
2026-04-21 20:54 52.05403 21.06421 2834 ft 209 kts 335°
2026-04-21 20:54 52.06646 21.05338 2519 ft 198 kts 335°
2026-04-21 20:55 52.07815 21.04322 2245 ft 186 kts 335°
2026-04-21 20:55 52.08919 21.03361 1970 ft 174 kts 336°
2026-04-21 20:55 52.09942 21.02472 1729 ft 160 kts 336°
2026-04-21 20:55 52.10902 21.01648 1503 ft 154 kts 335°
2026-04-21 20:56 52.11853 21.00830 1213 ft 154 kts 335°
2026-04-21 20:56 52.12780 21.00029 930 ft 148 kts 333°
2026-04-21 20:56 52.13693 20.99223 783 ft 150 kts 333°
2026-04-21 20:56 52.14610 20.98431 609 ft 150 kts 333°
2026-04-21 20:57 52.15539 20.97618 413 ft 152 kts 332°
2026-04-21 20:57 52.16409 20.96857 373 ft 125 kts 332°
2026-04-21 20:57 52.17048 20.96302 373 ft 80 kts 332°
2026-04-21 20:57 52.17406 20.95991 373 ft 36 kts 332°
2026-04-21 20:58 52.17555 20.95859 373 ft 21 kts 332°
2026-04-21 20:58 52.17679 20.95751 372 ft 19 kts 332°
2026-04-21 20:58 52.17785 20.95658 372 ft 14 kts 334°
2026-04-21 20:58 52.17860 20.95661 373 ft 9 kts 40°
2026-04-21 20:59 52.17890 20.95750 373 ft 8 kts 83°
2026-04-21 20:59 52.17874 20.95839 372 ft 8 kts 117°
2026-04-21 20:59 52.17845 20.95920 372 ft 8 kts 121°
2026-04-21 20:59 52.17816 20.95995 373 ft 7 kts 123°
2026-04-21 21:00 52.17779 20.96051 373 ft 7 kts 153°
2026-04-21 21:00 52.17733 20.96092 373 ft 7 kts 149°
2026-04-21 21:00 52.17686 20.96139 373 ft 9 kts 149°
2026-04-21 21:00 52.17623 20.96196 373 ft 11 kts 151°
2026-04-21 21:01 52.17548 20.96262 373 ft 13 kts 152°
2026-04-21 21:01 52.17467 20.96337 373 ft 13 kts 141°
2026-04-21 21:01 52.17455 20.96458 372 ft 11 kts 69°
2026-04-21 21:01 52.17479 20.96536 373 ft 4 kts 72°
2026-04-21 21:02 52.17478 20.96603 373 ft 7 kts 101°
2026-04-21 21:02 52.17464 20.96679 373 ft 6 kts 108°
2026-04-21 21:02 52.17456 20.96720 373 ft 0 kts 109°